Location: Berlise
(49.6641°N, 4.1077°E)
Time: 20:15:50
(UTC+00:00)

CENTAUR R/B - Pass Details

Date: 27 January 2021
Orbit: 742 x 1446 km, 63.5° (Epoch: 25 February)

Event Time Altitude Azimuth Distance (km) Brightness Sun altitude
Rises 05:18:09 0° 205° (SSW) 3,388 5.1 -20.0°
Reaches altitude 10° 05:20:28 10° 201° (SSW) 2,531 4.5 -19.6°
Maximum altitude 05:26:15 59° 123° (ESE) 1,132 3.1 -18.7°
Drops below altitude 10° 05:33:10 10° 46° (NE) 3,019 5.6 -17.6°
Sets 05:36:08 0° 44° (NE) 4,094 6.3 -17.1°
